Location: Kalberh�ni
(46.4610°N, 7.2453°E)
Time: 08:49:28
(UTC+00:00)

Cosmos 1455 - Pass Details

Date: 28 October 2021
Orbit: 496 x 520 km, 82.5° (Epoch: 27 November)

Event Time Altitude Azimuth Distance (km) Brightness Sun altitude
Rises 18:11:35 0° 189° (S) 2,615 5.9 -19.4°
Reaches altitude 10° 18:13:42 10° 190° (S) 1,729 4.9 -19.8°
Maximum altitude 18:17:30 83° 278° (W) 519 2.1 -20.4°
Drops below altitude 10° 18:21:18 10° 8° (N) 1,730 4.8 -21.1°
Enters shadow 18:22:48 - 9° (N) 2,357 5.5 -21.3°
